COSMOS 1275 DEB

Satellite information

Favourite Embed

Satellite Type and Status

DEBRISIN ORBIT

Key statistics

Satellite COSMOS 1275 DEB at a glance.

Uptime

16212

Days in orbit

Revolutions

≈ 14.1

Per day

Orbit

LEO

Low Earth Orbit

Inclination

83.0

Latest

Satellite identification and parameters

Extended collection of information and parameters for COSMOS 1275 DEB.

Object identification

Identified? True

Debris? True

Object name: COSMOS 1275 DEB

International designator: 1981-053GM

Object number (NORAD): 13619

Object ID (CCSDS): 13619

Country: COMMONWEALTH OF INDEPENDENT STATES (CIS)

Current information (Y/N): Y

RCS size: SMALL

Orbital parameters

Period: 102.188 minutes

Inclination: 83.0257 deg

SMA: 7240.368 km

Apoapsis: 877.201 km

Periapsis: 847.265 km

RAAN: 290.5476 deg

Eccentricy: 0.00206731

Argument of periapsis: 341.7601 deg

Mean anomaly: 143.0557 deg

Mean motion: 14.09164864 rev/day

Mean motion (dot): 0.00002954 rev/day2

B* drag term: 0.0016890746 1/REarth

Two-line elements (TLE)

Creation date: Oct. 23, 2025, 2:46 a.m.

Reference frame: TEME

Reference center: EARTH

Epoch: Oct. 22, 2025, 11:20 a.m. UTC

TLE line 0: 0 COSMOS 1275 DEB

TLE line 1: 1 13619U 81053GM 25295.47238256 .00002954 00000-0 16891-2 0 9994

TLE line 2: 2 13619 83.0257 290.5476 0020673 341.7601 143.0557 14.09164864189657

Live tracking on map

Real-time ground track for satellite COSMOS 1275 DEB.

In-orbit conjunctions

A list of the most updated potential collisions computed for object COSMOS 1275 DEB.

Target Orbit TCA Probability of collision Miss distance Type
GGSE 3 LEO 2025-10-08 01:45:34 0.003465395 147.0 (m) PAYLOAD
FENGYUN 1C DEB SSO 2024-11-12 12:39:39 0.0001781991 659.0 (m) DEBRIS

Associated space launch

Navigation satellite providing location information for the Tsiklon-B navigation system

COSMOS 1275 DEB was lifted into orbit during the mission ‘Kosmos-3M | Parus 27’, on board a Kosmos-3M space rocket.

The launch took place on June 4, 1981, 3:41 p.m. from 132/2.

For more information about the launch, click the button.

Launch to space Kosmos-3M | Parus 27
Kosmos-3M | Parus 27

Agency: N/A

Status: Launch Successful

Launch date: June 4, 1981, 3:41 p.m. UTC

Rocket: Kosmos-3M

Launch pad: 132/2

Location: Plesetsk Cosmodrome, Russian Federation

...

Latest news about this satellite

There are no fresh news available about this satellite. Check back as we update our databases every day.


Newsletter sign-up

Weekly statistics, charts and insights to help you stay on top of the space industry.